Regional Weather Roundup
Issued by NWS

Home | Current Version | Previous Version | Graphics & Text | Print | Product List | Glossary On
Versions: 1 2 3 4 5 6 7 8 9 10 11 12 13 14 15 16 17 18 19 20 21 22 23 24 25 26 27 28 29 30 31 32 33 34 35 36 37 38 39 40 41 42 43 44 45 46 47 48 49 50
000
ASUS45 KCYS 270710
RWRWY

WYOMING REGIONAL WEATHER ROUNDUP
NATIONAL WEATHER SERVICE CHEYENNE WY
100 AM MDT WED AUG 27 2014

NOTE:  "FAIR" INDICATES FEW OR NO CLOUDS BELOW 12,000 FEET
WITH NO SIGNIFICANT WEATHER AND/OR OBSTRUCTIONS TO VISIBILITY.

WYZ001-270800-
YELLOWSTONE NATIONAL PARK

CITY           SKY/WX    TMP DP  RH WIND       PRES   REMARKS
LK YELLOWSTONE   N/A     36  34  92 CALM      30.39S
W YELLOWSTONE  NOT AVBL

$$
WYZ002>013-054>058-071-098>099-270800-
NORTHERN WYOMING

CITY           SKY/WX    TMP DP  RH WIND       PRES   REMARKS
JACKSON        PTCLDY    45  45 100 N3        30.29S
CODY           PTCLDY    57  48  72 SW5       30.19S
GREYBULL       PTCLDY    61  48  62 S6        30.13S
WORLAND        NOT AVBL
SHERIDAN       CLEAR     52  48  86 SW6       30.17S
BUFFALO        CLEAR     56  47  71 SW7       30.23F
GILLETTE       PTCLDY    54  51  90 CALM      30.19F
HULETT         FAIR      55  54  94 MISG      30.20
NEWCASTLE      FAIR      63  54  72 MISG      30.19

$$
WYZ014>020-022>026-101>103-270800-
CENTRAL WYOMING

CITY           SKY/WX    TMP DP  RH WIND       PRES   REMARKS
BIG PINEY      CLOUDY    48  45  89 NW9       30.31F
PINEDALE       PTSUNNY   45  45 100 NW6       30.32F
DUBOIS         FAIR      48  37  66 NW7       30.33R
LANDER         PTCLDY    59  47  64 W6        30.21S
RIVERTON       PTCLDY    62  47  57 NE13      30.20F
CASPER         PTCLDY    58  50  75 NE8       30.22S
DOUGLAS        PTCLDY    57  54  89 E3        30.22S

$$
WYZ021-027>030-104>119-270800-
SOUTHERN WYOMING

CITY           SKY/WX    TMP DP  RH WIND       PRES   REMARKS
EVANSTON       MOCLDY    51  44  77 NW5       30.29S
KEMMERER       CLOUDY    54  43  66 NW3       30.31S
FORT BRIDGER   FAIR      55  47  72 CALM      30.31S
ROCK SPRINGS   MOCLDY    52  41  66 E5        30.28S
DIXON          FAIR      54  48  80 NE6       30.29F
RAWLINS        PTCLDY    51  42  71 CALM      30.27F
SARATOGA       FAIR      50  46  87 MISG      30.30S
LARAMIE        PTCLDY    52  44  74 S3        30.29S
CHEYENNE       PTCLDY    56  51  84 W5        30.24F
TORRINGTON     MOCLDY    60  57  89 E6        30.15R
PINE BLUFFS    FAIR      57  54  88 CALM      30.20S

$$


USA.gov is the U.S. government's official web portal to all federal, state and local government web resources and services.